[[{"header":{"parameterUnit":"m.s-1","parameterCategory":1,"la1":30.2991,"la2":30.254,"lo1":-89.0895,"lo2":-89.0444,"dy":0.0017,"dx":0.0017,"nx":28,"ny":28,"refTime":"2023-10-05T09:00:00:Z","depth":0,"parameterNumber":2,"parameterNumberName":"U-component_of_WINDS"},"data":[0,0,0,0,0,0,0,0,0,0,0,0,0,0,0,0,0,0,0,0,0,0,0,0,0,0,0,0,0,0,0,0,0,0,0,0,0,0,0,0,0,0,0,0,0,0,0,0,0,0,0,0,0,0,0,0,0,0,-0.0837,-0.0837,0,-0.089,-0.089,-0.0891,-0.0881,-0.088,-0.0879,-0.0878,-0.0935,-0.0938,-0.094,0,0,0,0,0,0,0,0,0,0,0,0,0,-0.0729,-0.0731,-0.0837,-0.0837,-0.0838,-0.089,-0.089,-0.0891,-0.0881,-0.088,-0.0878,-0.0877,-0.0934,-0.0937,-0.094,0,0,0,0,0,0,0,0,0,0,0,0,0,-0.0779,-0.0732,-0.0837,-0.0839,-0.084,-0.0889,-0.089,-0.0891,-0.0881,-0.088,-0.0878,-0.0877,-0.0933,-0.0937,-0.0941,-0.0992,0,0,-0.0952,-0.0953,0,0,0,0,0,0,0,0,-0.0776,-0.0783,-0.0838,-0.0839,-0.084,-0.0877,-0.0873,-0.0925,-0.0881,-0.0866,-0.0878,-0.0876,-0.0917,-0.0922,-0.0935,-0.0995,-0.0997,-0.0952,-0.0954,-0.0956,-0.0957,0,0,0,0,0,0,0,-0.0772,-0.078,-0.0858,-0.0839,-0.084,-0.0838,-0.0844,-0.0883,-0.0899,-0.0867,-0.0866,-0.0872,-0.0917,-0.0932,-0.0937,-0.0998,-0.0952,-0.0955,-0.0957,-0.0959,-0.1102,-0.1104,0,0,0,0,0,0,-0.0768,-0.0778,-0.0856,-0.0859,-0.0804,-0.0841,-0.0848,-0.0867,-0.0898,-0.0902,-0.0874,-0.0872,-0.0926,-0.0932,-0.0939,-0.1001,-0.0956,-0.0959,-0.0961,-0.11,-0.1102,-0.1104,0,0,0,0,0,0,-0.0766,-0.0775,-0.0854,-0.0818,-0.0828,-0.0845,-0.0866,-0.0868,-0.0883,-0.0904,-0.0907,-0.0885,-0.0925,-0.0933,-0.0979,-0.1003,-0.0961,-0.0964,-0.1099,-0.1101,-0.1103,-0.1126,0,0,0,0,0,0,-0.0763,-0.0774,-0.0793,-0.0819,-0.083,-0.0892,-0.0868,-0.0871,-0.0889,-0.0887,-0.0915,-0.0919,-0.0925,-0.0973,-0.0982,-0.1007,-0.0967,-0.1096,-0.11,-0.1102,-0.1123,-0.1129,-0.1134,0,0,0,0,0,-0.0759,-0.0798,-0.0794,-0.0804,-0.0854,-0.0894,-0.09,-0.0906,-0.0891,-0.0911,-0.0924,-0.0918,-0.0998,-0.0978,-0.0988,-0.1014,-0.1095,-0.1099,-0.1102,-0.1121,-0.1128,-0.1133,0,0,0,0,0,0,-0.0777,-0.0802,-0.0798,-0.0847,-0.0868,-0.0892,-0.0917,-0.0913,-0.094,-0.0938,-0.0944,-0.0951,-0.0996,-0.101,-0.0986,-0.1065,-0.1045,-0.105,-0.1055,-0.1062,-0.1067,-0.1063,-0.097,0,0,0,0,0,-0.0786,-0.0815,-0.0836,-0.0877,-0.0888,-0.0901,-0.0918,-0.092,-0.0943,-0.0953,-0.0969,-0.0992,-0.1023,-0.1043,-0.1072,-0.1125,-0.1131,-0.1148,-0.1153,-0.1157,-0.1162,-0.1191,-0.1199,-0.1116,-0.1116,-0.1116,0,0,-0.0807,-0.0824,-0.0842,-0.0881,-0.0898,-0.0929,-0.0909,-0.0942,-0.0965,-0.0958,-0.1001,-0.1014,-0.1041,-0.1089,-0.1112,-0.1102,-0.1186,-0.1162,-0.1165,-0.1168,-0.1195,-0.1203,-0.121,-0.1119,-0.1118,-0.1118,0,0,-0.0859,-0.0875,-0.0911,-0.0928,-0.0953,-0.0961,-0.097,-0.0994,-0.1002,-0.1045,-0.1041,-0.1068,-0.1121,-0.114,-0.1156,-0.1215,-0.1211,-0.1224,-0.1253,-0.128,-0.1287,-0.1293,-0.1314,-0.1321,-0.1229,-0.123,-0.123,0,-0.0882,-0.0927,-0.093,-0.0964,-0.0982,-0.0975,-0.1012,-0.1028,-0.1062,-0.1075,-0.1063,-0.1128,-0.1146,-0.1199,-0.1213,-0.1226,-0.1237,-0.1222,-0.1285,-0.1291,-0.1297,-0.1317,-0.1325,-0.1231,-0.1231,-0.1231,-0.1231,0,-0.0954,-0.0985,-0.1011,-0.1042,-0.1063,-0.1098,-0.1107,-0.1128,-0.1128,-0.1137,-0.1181,-0.1202,-0.1235,-0.1247,-0.1249,-0.1301,-0.1294,-0.1284,-0.1263,-0.1306,-0.1325,-0.1333,-0.1233,-0.1233,-0.1232,-0.1232,0,0,-0.102,-0.1052,-0.1062,-0.1076,-0.1103,-0.1128,-0.1162,-0.1193,-0.1211,-0.1234,-0.1264,-0.1308,-0.1299,-0.1317,-0.132,-0.1344,-0.139,-0.1331,-0.1332,-0.1342,-0.1449,-0.1456,-0.1465,-0.1387,-0.1388,-0.1389,-0.1447,0,-0.1076,-0.1136,-0.114,-0.1195,-0.1224,-0.1218,-0.1248,-0.1268,-0.1278,-0.1305,-0.1315,-0.1347,-0.1331,-0.1343,-0.1366,-0.1379,-0.1411,-0.1375,-0.1415,-0.1417,-0.1409,-0.1475,-0.1484,-0.1537,-0.1454,-0.1455,-0.1456,0,-0.1149,-0.1173,-0.1231,-0.1253,-0.1265,-0.1292,-0.1321,-0.1346,-0.1369,-0.1374,-0.1395,-0.1394,-0.143,-0.1407,-0.1458,-0.1433,-0.145,-0.1458,-0.1461,-0.1465,-0.1439,-0.1482,-0.1554,-0.1562,-0.1468,-0.1467,-0.1466,0,-0.1192,-0.1239,-0.128,-0.1292,-0.1319,-0.1338,-0.135,-0.1371,-0.139,-0.1415,-0.1427,-0.1456,-0.1473,-0.1496,-0.1503,-0.1486,-0.1554,-0.1531,-0.156,-0.1559,-0.1575,-0.1574,-0.1651,-0.1585,-0.1584,-0.1584,-0.1584,0,-0.1254,-0.129,-0.1299,-0.1325,-0.1364,-0.1368,-0.1408,-0.1419,-0.1437,-0.1465,-0.1462,-0.1488,-0.1496,-0.1523,-0.1529,-0.157,-0.1578,-0.1583,-0.1585,-0.1584,-0.1583,-0.1596,-0.1592,-0.1586,-0.1586,-0.1586,-0.1585,0,-0.131,-0.1318,-0.1361,-0.1382,-0.1388,-0.1417,-0.1435,-0.146,-0.1468,-0.1503,-0.1512,-0.1525,-0.1558,-0.1567,-0.1606,-0.161,-0.1658,-0.1656,-0.165,-0.1651,-0.1678,-0.1676,-0.1766,-0.1778,-0.1704,-0.1704,-0.1705,0,-0.1349,-0.1376,-0.14,-0.1417,-0.143,-0.1458,-0.1477,-0.1481,-0.1501,-0.1528,-0.1549,-0.1581,-0.1606,-0.1658,-0.1672,-0.1702,-0.1701,-0.173,-0.1705,-0.1704,-0.1702,-0.17,-0.1703,-0.1736,-0.1736,-0.1737,-0.1737,0,-0.1418,-0.142,-0.1446,-0.1473,-0.1495,-0.1517,-0.1538,-0.1553,-0.156,-0.1582,-0.1614,-0.1634,-0.1673,-0.1705,-0.1735,-0.1748,-0.1745,-0.1745,-0.1753,-0.1753,-0.1749,-0.1752,-0.1664,-0.1743,-0.1743,-0.1742,-0.1742,-0.1742,-0.1467,-0.1491,-0.1511,-0.1539,-0.1555,-0.1575,-0.1599,-0.1609,-0.1636,-0.1668,-0.1669,-0.1704,-0.1726,-0.1765,-0.178,-0.1808,-0.18,-0.1811,-0.1814,-0.1817,-0.182,-0.1743,-0.1814,-0.1813,-0.1813,-0.1813,-0.1813,0,-0.1536,-0.1548,-0.1575,-0.1604,-0.1626,-0.1619,-0.1642,-0.1662,-0.1692,-0.1712,-0.1737,-0.1774,-0.1804,-0.182,-0.185,-0.187,-0.1869,-0.1877,-0.1876,-0.188,-0.1826,-0.1816,-0.1878,-0.1878,-0.1878,-0.1878,-0.1878,-0.1878,-0.1575,-0.1614,-0.1619,-0.1666,-0.1678,-0.1712,-0.1725,-0.1743,-0.1759,-0.18,-0.1825,-0.1834,-0.1853,-0.1884,-0.1912,-0.1916,-0.1927,-0.1937,-0.194,-0.189,-0.1883,-0.1877,-0.1868,-0.194,-0.194,-0.1992,-0.1992,-0.1993]},{"header":{"parameterUnit":"m.s-1","parameterCategory":1,"la1":30.2991,"la2":30.254,"lo1":-89.0895,"lo2":-89.0444,"dy":0.0017,"dx":0.0017,"nx":28,"ny":28,"refTime":"2023-10-05T09:00:00:Z","depth":0,"parameterNumber":3,"parameterNumberName":"V-component_of_WINDS"},"data":[0,0,0,0,0,0,0,0,0,0,0,0,0,0,0,0,0,0,0,0,0,0,0,0,0,0,0,0,0,0,0,0,0,0,0,0,0,0,0,0,0,0,0,0,0,0,0,0,0,0,0,0,0,0,0,0,0,0,-1.5394,-1.5393,0,-1.5376,-1.5375,-1.5375,-1.5374,-1.5374,-1.5375,-1.5375,-1.5354,-1.5353,-1.5352,0,0,0,0,0,0,0,0,0,0,0,0,0,-1.5424,-1.5424,-1.5394,-1.5393,-1.5393,-1.5376,-1.5375,-1.5375,-1.5374,-1.5374,-1.5375,-1.5375,-1.5354,-1.5353,-1.5352,0,0,0,0,0,0,0,0,0,0,0,0,0,-1.5409,-1.5424,-1.5394,-1.5391,-1.539,-1.5376,-1.5375,-1.5375,-1.5374,-1.5374,-1.5375,-1.5375,-1.5354,-1.5353,-1.5352,-1.5339,0,0,-1.5349,-1.5348,0,0,0,0,0,0,0,0,-1.541,-1.5408,-1.5391,-1.5391,-1.539,-1.5377,-1.5379,-1.5363,-1.5374,-1.538,-1.5375,-1.5375,-1.5361,-1.536,-1.5355,-1.5338,-1.5337,-1.5349,-1.5348,-1.5348,-1.5347,0,0,0,0,0,0,0,-1.5411,-1.5409,-1.5386,-1.5391,-1.539,-1.5389,-1.5387,-1.5376,-1.5369,-1.538,-1.538,-1.5377,-1.5361,-1.5357,-1.5355,-1.5337,-1.5349,-1.5348,-1.5347,-1.5347,-1.5305,-1.5304,0,0,0,0,0,0,-1.5413,-1.541,-1.5387,-1.5386,-1.5401,-1.5388,-1.5386,-1.5381,-1.5369,-1.5368,-1.5377,-1.5378,-1.5358,-1.5356,-1.5354,-1.5336,-1.5348,-1.5346,-1.5346,-1.5305,-1.5305,-1.5304,0,0,0,0,0,0,-1.5414,-1.5411,-1.5388,-1.5398,-1.5395,-1.5388,-1.5382,-1.5381,-1.5376,-1.5367,-1.5366,-1.5374,-1.5359,-1.5356,-1.5342,-1.5336,-1.5346,-1.5345,-1.5306,-1.5305,-1.5304,-1.5301,0,0,0,0,0,0,-1.5415,-1.5411,-1.5407,-1.5398,-1.5394,-1.5377,-1.5381,-1.538,-1.5375,-1.5375,-1.5364,-1.5363,-1.5359,-1.5344,-1.5341,-1.5334,-1.5344,-1.5306,-1.5305,-1.5305,-1.5302,-1.53,-1.5299,0,0,0,0,0,-1.5416,-1.5407,-1.5407,-1.5404,-1.5389,-1.5377,-1.5375,-1.5371,-1.5374,-1.5369,-1.5363,-1.5363,-1.5337,-1.5343,-1.5339,-1.5332,-1.5307,-1.5306,-1.5305,-1.5302,-1.5301,-1.5299,0,0,0,0,0,0,-1.5415,-1.5405,-1.5405,-1.5393,-1.5386,-1.5377,-1.537,-1.537,-1.5361,-1.5361,-1.5356,-1.5354,-1.534,-1.5335,-1.5341,-1.5317,-1.5322,-1.532,-1.5321,-1.5319,-1.5318,-1.5319,-1.5343,0,0,0,0,0,-1.5413,-1.5405,-1.5397,-1.5387,-1.5383,-1.5377,-1.5372,-1.537,-1.5362,-1.5358,-1.5352,-1.5343,-1.5332,-1.5326,-1.5316,-1.5301,-1.5298,-1.5294,-1.5293,-1.5292,-1.529,-1.528,-1.5278,-1.5301,-1.5301,-1.5301,0,0,-1.541,-1.5404,-1.5399,-1.5387,-1.5381,-1.5371,-1.5375,-1.5365,-1.5358,-1.5357,-1.5343,-1.5338,-1.5328,-1.5313,-1.5306,-1.5308,-1.5283,-1.5291,-1.529,-1.5289,-1.5279,-1.5276,-1.5274,-1.53,-1.53,-1.5301,0,0,-1.5399,-1.5394,-1.5384,-1.5378,-1.5369,-1.5365,-1.5363,-1.5353,-1.535,-1.5336,-1.5335,-1.5325,-1.5308,-1.5301,-1.5294,-1.5279,-1.5278,-1.5276,-1.5269,-1.5259,-1.5257,-1.5255,-1.5248,-1.5246,-1.5274,-1.5274,-1.5274,0,-1.5395,-1.5382,-1.5379,-1.5369,-1.5363,-1.5362,-1.5351,-1.5345,-1.5333,-1.5328,-1.5331,-1.5309,-1.5302,-1.5284,-1.528,-1.5276,-1.5272,-1.5277,-1.5258,-1.5256,-1.5254,-1.5247,-1.5245,-1.5274,-1.5274,-1.5274,-1.5274,0,-1.5378,-1.5368,-1.5361,-1.535,-1.5343,-1.5333,-1.5327,-1.5321,-1.5319,-1.5314,-1.5299,-1.5291,-1.5278,-1.5274,-1.5272,-1.5256,-1.5257,-1.5259,-1.5263,-1.5252,-1.5245,-1.5242,-1.5274,-1.5274,-1.5274,-1.5274,0,0,-1.5366,-1.5352,-1.5349,-1.5344,-1.5333,-1.5325,-1.5314,-1.5302,-1.5296,-1.5287,-1.5277,-1.5262,-1.5263,-1.5256,-1.5253,-1.5244,-1.523,-1.5246,-1.5246,-1.5242,-1.5209,-1.5207,-1.5204,-1.5229,-1.5229,-1.5229,-1.5209,0,-1.5352,-1.5333,-1.533,-1.5313,-1.5303,-1.5301,-1.5291,-1.5283,-1.5278,-1.5268,-1.5262,-1.5251,-1.5254,-1.5249,-1.5241,-1.5234,-1.5223,-1.5235,-1.5218,-1.5217,-1.5219,-1.52,-1.5198,-1.5181,-1.5207,-1.5206,-1.5206,0,-1.5334,-1.5325,-1.5307,-1.5296,-1.5292,-1.5284,-1.5272,-1.5263,-1.5252,-1.5249,-1.5241,-1.5238,-1.5225,-1.5231,-1.5211,-1.5219,-1.5212,-1.5207,-1.5206,-1.5204,-1.521,-1.5196,-1.5175,-1.5172,-1.5202,-1.5202,-1.5203,0,-1.5325,-1.5309,-1.5295,-1.5291,-1.5278,-1.5272,-1.5266,-1.5256,-1.5249,-1.5238,-1.5233,-1.5221,-1.5214,-1.5204,-1.5197,-1.5202,-1.5177,-1.5183,-1.5173,-1.5173,-1.5167,-1.5167,-1.5143,-1.5164,-1.5165,-1.5165,-1.5165,0,-1.531,-1.5299,-1.5291,-1.5283,-1.5269,-1.5265,-1.5251,-1.5246,-1.5236,-1.5226,-1.5224,-1.5213,-1.5206,-1.5195,-1.519,-1.5173,-1.517,-1.5166,-1.5164,-1.5165,-1.5166,-1.516,-1.516,-1.5164,-1.5164,-1.5164,-1.5164,0,-1.5298,-1.5293,-1.5278,-1.5267,-1.5264,-1.5254,-1.5244,-1.5235,-1.523,-1.5216,-1.5212,-1.5203,-1.5189,-1.5182,-1.5165,-1.5161,-1.5142,-1.5142,-1.5145,-1.5145,-1.5134,-1.5134,-1.5104,-1.5099,-1.5125,-1.5125,-1.5125,0,-1.5288,-1.5279,-1.5267,-1.526,-1.5254,-1.5243,-1.5236,-1.523,-1.5222,-1.5209,-1.5201,-1.5187,-1.5175,-1.5153,-1.5144,-1.513,-1.5128,-1.5119,-1.5126,-1.5126,-1.5126,-1.5126,-1.5124,-1.5117,-1.5117,-1.5116,-1.5116,0,-1.5271,-1.5268,-1.5258,-1.5246,-1.5237,-1.5227,-1.5217,-1.5211,-1.5204,-1.5195,-1.518,-1.5171,-1.5153,-1.5138,-1.5123,-1.5116,-1.5114,-1.5114,-1.511,-1.5111,-1.5112,-1.5109,-1.514,-1.5114,-1.5115,-1.5115,-1.5115,-1.5115,-1.5258,-1.525,-1.5239,-1.5227,-1.5219,-1.521,-1.52,-1.5193,-1.5182,-1.5167,-1.5164,-1.5148,-1.5136,-1.5116,-1.5108,-1.5095,-1.5096,-1.5092,-1.509,-1.5089,-1.5087,-1.5116,-1.5092,-1.5092,-1.5092,-1.5092,-1.5092,0,-1.5239,-1.5232,-1.5221,-1.5208,-1.5197,-1.5198,-1.5186,-1.5177,-1.5164,-1.5153,-1.5142,-1.5124,-1.5109,-1.5099,-1.5083,-1.5074,-1.5073,-1.507,-1.507,-1.5068,-1.5088,-1.5091,-1.5072,-1.5072,-1.5072,-1.5072,-1.5072,-1.5072,-1.5228,-1.5213,-1.5209,-1.5189,-1.5182,-1.5167,-1.516,-1.5151,-1.5142,-1.5123,-1.511,-1.5104,-1.5092,-1.5076,-1.5062,-1.5059,-1.5052,-1.5049,-1.5046,-1.5065,-1.5067,-1.5069,-1.5072,-1.5049,-1.5049,-1.5027,-1.5027,-1.5027]}]]